Regional Weather Roundup
Issued by NWS

Home | Current Version | Previous Version | Graphics & Text | Print | Product List | Glossary On
Versions: 1 2 3 4 5 6 7 8 9 10 11 12 13 14 15 16 17 18 19 20 21 22 23 24 25 26 27 28 29 30 31 32 33 34 35 36 37 38 39 40 41 42 43 44 45 46 47 48 49 50
000
ASUS43 KBIS 200702
RWRND

NORTH DAKOTA REGIONAL WEATHER ROUNDUP
NATIONAL WEATHER SERVICE BISMARCK ND
100 AM CST MON NOV 20 2017

NOTE: "FAIR" INDICATES FEW OR NO CLOUDS BELOW 12,000 FEET WITH NO
SIGNIFICANT WEATHER AND/OR OBSTRUCTIONS TO VISIBILITY.


NDZ001>003-009>011-017-200800-
NORTHWEST NORTH DAKOTA

CITY           SKY/WX    TMP DP  RH WIND       PRES   REMARKS
WILLISTON      CLOUDY    28  21  75 S5        29.49F
MINOT          CLOUDY    35  23  61 SW14      29.48F
$$

NDZ018>021-031>035-040>046-200800-
SOUTHWEST NORTH DAKOTA

CITY           SKY/WX    TMP DP  RH WIND       PRES   REMARKS
BISMARCK       CLOUDY    29  21  72 CALM      29.59F
DICKINSON      CLOUDY    40  21  46 SW18      29.52F
GARRISON         N/A     29  23  78 S5        29.53F
HETTINGER ARPT CLOUDY    29  19  66 SW8       29.61F
$$

NDZ004>008-012>016-024-026-027-054-200800-
NORTHEAST NORTH DAKOTA

CITY           SKY/WX    TMP DP  RH WIND       PRES   REMARKS
GRAND FORKS    CLOUDY    21  19  92 SE9       29.63F WCI  11
GRND FRKS AFB  CLOUDY    17  16  94 S6        29.61F WCI   9
DEVILS LAKE    CLOUDY    25  22  88 SE9       29.55F WCI  15
$$

NDZ022-023-025-028>030-036>039-047>053-200800-
SOUTHEAST NORTH DAKOTA

CITY           SKY/WX    TMP DP  RH WIND       PRES   REMARKS
FARGO          CLOUDY    27  22  81 S8        29.67F WCI  19
JAMESTOWN      CLOUDY    23  19  85 SE5       29.60F WCI  17
$$




USA.gov is the U.S. government's official web portal to all federal, state and local government web resources and services.